Race Results for
Snowmass Norba National-NMBS #7
Snowmass, CO
(Event Information)
Super D on 08/12/2006

Note: Ranking points are NOT upgrade points. An explanation of ranking points can be found here.


Men - Cat 1/2/3 - Senior

 Place Points NameCity, StateTime USAC #BibTeam
1 CHRIS MATHIS   13:14.78  2470 
2 BRETT BATCHELDER   13:37.15  2602 GARY FISHE
3 CHRIS JUST   14:09.84  2600 MICHELIN
4 MARK MABON   14:12.61  2585 
5 ZEPH WADSWORTH   14:56.51  2584 LUNA
6 TROY LAFFEY   15:01.74  884 
7 Suzanne Peters   Elk Grove, CA17:14.87 207899  2492 VELO BELLA
8 JED PETERS   21:22.51  2487 VELO BELLA
DNF CHAD DEWITT   DNF  2586 
DNF ALEX BURGESS   DNF  2486 VELO BELLA
DNF John Valera   San Jose, CADNF 226957  2251 SANTA CRUZ

Men - Cat 1/2/3 - Senior - 19-29

 Place Points NameCity, StateTime USAC #BibTeam
1 Trevor Downing   Durango, CO12:26.97 161859  215 BV BIKES/S
2 MATHEW BARLOW   12:39.80  2552 
3 Chad Cheeney   Durango, CO12:53.61 104313  2407 DURANGO DE
4 Dan Sypniewski   Rochester Hills, MI12:58.03 229149  2232 KONA MIDWE
5 Jason Wenk   North Mankato, MN13:04.02 238817  2354 
6 Daniel Smith   Fayetteville, AR13:48.05 176262  2488 HIGHROLLER
7 Blake O'Donnell   Colorado Springs, CO13:54.83 172936  234 
8 MICHEL DAHL   14:13.50  2551 
9 STEPHEN SMITH   14:16.08  2555 
10 Miguel Ramos   Lake Elsinore, CA14:18.15 182950  2422 TEAM AK
11 Jeffery McCullough   Grand Junction, CO14:53.90 214313  2389 RUBY CANYO
12 Andrew Ramsay   Waterville, ME15:53.54 180173  1911 NORTHEASTE
13 Stephane Roch   San Diego, CA15:58.47 199861  2043 BIKE EMPIR
14 Andrew Farrell   Boston , MA18:00.72 243528  2274 
DNF Mason Klebold   Grand Junction, CODNF 180862  355 RUBY CANYO
DNF MARK STOVER   DNF  2310 NINE 7 ZER
DNF Justin Rinehart   Mankato, MNDNF 149501  2355 BEAR NAKED
DNF RICKY WATTS   DNF  2388 
DNF Ryan Blaney   Pleasant Grove, UTDNF 117219  2450 SMITH/BIKE
DNF Brett Vaughan   Austin, TXDNF 157832  2465 DOVE CREEK
DNF Steve Ladd   Fort Collins, CODNF 166316  2491 COLORADO S
DNF Robert Herber   Murrieta, CADNF 153464  204 KHS/IE BIK

Men - Cat 1/2/3 - Master - 30-39

 Place Points NameCity, StateTime USAC #BibTeam
1 Michael Pastore   Avon, CO12:38.70 85683  2501 MOUNTAIN P
2 Adam Lavender   Carbondale, CO13:00.44 211131  2582 THE FIX SM
3 Derek Eilers   Denver, CO13:11.43 137502  2560 
4 Jason Beckley   Clifton Heights, PA14:00.42 3122  350 9.8/SINIST
5 Chris Sherwin   Heber, UT14:15.50 190208  2566 REVOLUTION
6 Clay Watson   Boulder, CO14:43.99 236865  2038 THE FIX/TR
7 ROBERT MESSICK   16:40.79  2334 
DNF Tom Torrance   Boulder, CODNF 173912  2489 CUP A CHIN
DNF Matthew Duke   Litchfield Park, AZDNF 194520  1935 INTENSE TI
DNF JESSE VOZA   DNF  2349 TRI SPORT
DNF MICAHEL RICE   DNF  2437 

Men - Cat 1/2/3 - Master - 40-49

 Place Points NameCity, StateTime USAC #BibTeam
1 Bill Scott   Orange, CA13:24.63 226977  2500 
2 Timothy Barnes   Boulder, CO13:47.00 96071  2135 SCOTT USA
3 Alex Wheeler   San Jose, CA14:44.22 115171  2468 BCIC/X-FUS
DNF Don Jackson   Riverside, CADNF 17510  2118 ODI/SOUTHR
DNF Keith Darner   Golden, CODNF 8663  2269 RPM/YETI

Men - Cat 1/2/3 - Master - 50-99

 Place Points NameCity, StateTime USAC #BibTeam
1 Scott Lideen   Phoenix, AZ14:21.12 142637  1960 DP AIR/SAN
2 PETE VOGT   18:02.50  2473 
3 Unknown FRENCHY   19:24.06  2347 
4 TOM STEVENS   21:03.43  2311 
5 CHUCK HULETT   23:58.84  1927 BEAR VALLE
6 James Van Manen   Ventura, CA25:04.68 36453  2308 BICYCLES O
DNF Joel Creed   Franklin, INDNF 146083  2089 GRAY GOATS
DNF DARRYL BANGERT   DNF  2583 

Men - Pro - Senior

 Place Points NameCity, StateTime USAC #BibTeam
1 Ross Schnell   Grand Jct, CO10:54.82 99965  2454 TREK/VW
2 Adam Craig   Bend, OR10:58.41 94510  2427 GIANT
3 Mike West   Boulder, CO11:21.09 37786  2562 MAVERICK
4 Carl Decker   Bend, OR11:24.32 9007  2428 GIANT
5 Brian Laiho   Boulder, CO11:26.01 114793  2179 
6 Matthew Kelly   Johnson Creek, WI11:34.83 116304  2234 SUBARU-GAR
7 Ariel Lindsley   Aptos, CA11:43.36 134618  2578 MAVERICK
8 WAYLON SMITH   12:05.91  2265 KHS
9 Joshua Bezecny   Golden, CO12:11.86 114873  2475 TARGET TRA
10 Paul Hanson   St Peter, MN12:12.64 118046  2353 
11 Dustin Wanstrath   Durango, CO12:12.93 190121  254 TEAM TAMAR
12 Barry Wicks   Corvallis, OR12:19.58 134223  2412 KONA/LES G
13 Eric Ransom   Richmond, VA12:19.92 150928  2495 TAMARACK R
14 Dana Weber   Aliso Viejo, CA12:20.35 126922  2505 JAX BICYCL
15 Jesse Swift   Golden, CO12:23.60 100646  2200 
16 Christopher Jung   Boulder, CO12:27.95 146247  2180 WALTWORKS/
17 Olivier Bock   Hood River, OR12:30.97 81949  230 MOTIONBASE
18 Michael Raney   Santa Fe, NM12:34.03 175669  205 NO ARIZONA
19 KEITH HICKERSON   12:35.47  41 
20 Chad Kittles   Arvada, CO12:37.75 80263  2178 YETI/DENVE
21 Brent Winebarger   Colorado Springs, CO12:58.59 132038  2481 HEALTH FX/
22 Justin Maka   Albuquerque, NM13:01.95 164982  2184 CPT/MAXXIS
23 NICOLAS ENJALBERT   13:02.78  2134 
24 MIKE DUCKWORTH   13:03.23  2137 
25 Jeffrey Wu   Littleton, CO13:14.28 164941  2103 FUENTESDES
26 PIERRE-YVES FACOMPREZ   13:47.03  2371 AS POURCHA
27 Thomas Wehe   Durango, CO15:24.00 37548  2275 KENDA/TURN
28 Alex Boday   Fort Collins, CO15:25.28 163689  2091 TOMAC/AZON
DNF Brian Buell   Jamestown, CODNF 218052  323 ROTEC CYCL
DNF Kristopher Holden   Spokane, WADNF 148376  2497 VERTICAL E
DNF Miles Venzara   Durango, CODNF 138725  2478 TEAM HEALT
DNF Ryan Lynch   Boulder, CODNF 164962  2476 JAMES FRAM
DNF Nicholas Martin   Boulder, CODNF 140177  2455 TREK/VW
DNF Shannon Boffeli   Salt Lake City, UTDNF 43484  2432 REVOLUTION
DNF RICKY FEDERAU   DNF  2430 TEAMRACE.C
DNF Scott Lowry   Mount Sterling, OHDNF 155327  337 OD RACING/
DNF Andre Sanches   Trabuco Canyon, CADNF 194967  312 AVENT/BOMB
DNF Brandon Turman   Costa Mesa, CADNF 198744  307 MAXXIS/FOX
DNF Travis (TJ) Woodruff   Prescott, AZDNF 135975  2357 LITESPEED/
DNF MATTHEW HADLEY   DNF  2426 ROCKY MOUN
DNF Nicholas Stevens   Boulder, CODNF 237516  2365 FUENTES DE
DNF Brett Stoeckelmann   Austin, TXDNF 134043  253 

Men - Junior - JR - 1-18

 Place Points NameCity, StateTime USAC #BibTeam
1 Mitchell Hoke   Boulder, CO12:24.30 203760  2119 YETI CYCLE
2 Art Nelsen   Boulder, CO12:47.86 211465  2111 TOKYO JOES
3 John Purvis   Parthenon, AR12:54.80 200977  2340 KONA
4 Danny O'Bryan   Woodland Hills, CA13:10.32 225352  2259 CYCOLOGY/U
5 Naish Ulmer   Hood River, OR13:10.69 175253  2293 X-FUSION/M
6 Gregory Carpenter   Durango, CO13:15.42 191158  1941 GIANT/DEVO
7 Adam LaRochelle   Granby, CO13:43.44 232919  2214 MICHELIN T
8 Jonathan Buckell   Pasadena, CA13:55.58 218074  2318 TNT RACING
9 Chris Myers   Colorado Springs, CO13:59.92 225550  2299 BRODIE BIK
10 Maxwell Wheeler   Nederland, CO14:26.54 219224  2479 FOX/CRANK
11 Matthew Beaton   Colorado Springs, CO14:40.14 216119  2493 
12 Jacob Bergeron   Colorado Springs, CO15:50.85 215410  2382 BERGERON
13 Samuel Stevens   Carbondale, CO15:55.81 217240  2312 KONA/UTE C
14 Alex Hulett   Big Bear Lake, CA16:00.40 137462  1928 BEAR VALLE
15 JOSHUA KAST   17:26.63  1925 
16 AUSTIN DEBOER   25:08.07  2535 
17 JOEY SULLIVAN   28:20.19  2517 EASTERN EU
DNF Joseph Autry   Durango, CODNF 247019  2129 DEVO/DURAN
DNF Benjamin Kraushaar   Durango, CODNF 198737  2379 HEALTH FX/
DNF Jose Garcia   Colorado Springs, CODNF 222073  2341 RPM/YETI
DNF Tyler McCaul   Aptos, CADNF 178124  2314 TREK/FOX R
DNF MATT SWANGUEN   DNF  2057 
DNF Benjamin Hulse   Mooresville, NCDNF 211866  2266 
DNF SEPP KUSS   DNF  2117 
DNF Gino Pastore   Durango, CODNF 230628  2061 
DNF Kirk Turner   Bellingham, WADNF 192168  2040 GIANT
DNF PAUL STOVER   DNF  2307 NINE SEVEN
DNF Tad Elliott   Durango, CODNF 230614  2123 DURANGO DE
DNF John Hauer   Santa Cruz, CADNF 205936  1929 WTB SPECIA

Women - Cat 1/2/3 - Senior - 19-29

 Place Points NameCity, StateTime USAC #BibTeam
1 Amanda Pilling   Royal Oak, MI15:26.64 247847  2231 KONA MIDWE
2 Janis Sandlin   Boulder, CO15:33.74 211344  2108 TOUGH GIRL
3 Ashley Eyre   Boulder, CO15:42.22 214077  2570 MAVERICK
4 Heidi Kanayan   Mammoth Lakes, CA15:46.40 214650  1926 STEVEN K S
5 Anna Kelso   Takoma Park, MD17:29.07 189154  2482 GRETNA
6 Lynn Bush   Arvada, CO22:00.63 217462  2474 TOUGH GIRL
DNF Sabina Kraushaar   Durango, CODNF 198738  2378 FORT LEWIS
DNF SONYA BUGBEE   DNF  1964 ROCKY MTN

Women - Cat 1/2/3 - Master - 30-39

 Place Points NameCity, StateTime USAC #BibTeam
1 MARIA PASTORE   16:03.20  2565 
2 ELAYNA CALDWELL   18:32.12  2572 FOX RACING

Women - Cat 1/2/3 - Master - 40-99

 Place Points NameCity, StateTime USAC #BibTeam
1 PEGGY HARRIS-FOSTER   16:04.60  2019 
2 Alexandria Fabbro   Altadena, CA16:05.85 56090  2025 VELO BELLA
3 Celia Graterol   Mill Valley, CA16:42.78 223612  2164 GARMIN MOT
4 Vicki Koch   West Falls, NY22:57.80 200770  1984 TEAM CMI/S

Women - Pro - Senior

 Place Points NameCity, StateTime USAC #BibTeam
1 Susan Haywood   Davis, WV13:01.94 117585  2331 TREK/VW
2 Dara Marks-Marino   Flagstaff, AZ13:20.70 144461  2317 TITUS/KEND
3 Jennifer Gersbach   Durango, CO13:29.05 191239  2461 TOKYO JOES
4 Sara Bresnick-Zocchi   Arlington, MA13:47.90 166426  2433 FORD CYCLI
5 Lorien Lightfield   Boise, ID13:53.06 98936  2440 TAMARACK
6 Abigail Hippely   Santa Cruz, CA14:03.22 184801  2577 MAVERICK
7 Alice Pennington   Portland, OR14:16.28 150685  2403 DESALVO
8 Shari Hausbeck   Colorado Springs, CO14:39.45 100434  2542 ROCKSHOX
9 Heather Svahn   Truckee, CA14:50.33 112034  2102 CONTENT WO
10 SONYA LOONEY   14:57.09  2458 TITUS
11 Ann Fitzsimmons   Gilroy, CA15:03.97 203793  2573 SCHWALBE T
12 Jennifer Whalen   Evergreen, CO15:18.87 163615  2459 JENXRACER.
13 Susan Grandjean   Portland, OR15:21.68 116807  2322 
14 Kathy Bodie   Boulder, CO16:11.76 173449  2576 DAM RIDERS
15 Anka Martin   Laguna Beach, CA16:21.20 172194  2581 HONDA IRON
16 Rana Schnell   Grand Junction, CO18:17.27 176436  135 RUBY CANYO
DNF Megan Monroe   Boulder, CODNF 178944  2460 SPORTS GAR
DNF Marla Streb   Baltimore, MDDNF 34393  1904 LUNA CHIX/
DNF Neven Steinmetz   Boulder, CODNF 199716  2242 FULL TILT
DNF Paula Bock   Hood River, ORDNF 166928  2126 MOTIONBASE
DNF Joanna Petterson   Jericho, VTDNF 187041  2260 MOREWOOD B
DNF Katerina Nash   Truckee, CADNF 188603  2469 LUNA WOMEN
DNF Jennifer Hanks   Salt Lake City, UTDNF 111202  2431 REVOLUTION
DNF Kathy Sherwin   Heber City, UTDNF 173633  2434 FORD CYCLI
DNF Melanie Meyers   Flagstaff, AZDNF 196731  2438 FORD CYCLI
DNF Chloe Forsman   Tucson, AZDNF 214920  2511 TOKYO JOES
DNF Gretchen Reeves   Avon, CODNF 29423  2333 TREK/VW

Women - Junior - JR - 1-18

 Place Points NameCity, StateTime USAC #BibTeam
1 Jill Behlen   Boulder, CO17:30.39 210228  2149 TOKYO JOES
2 CAROLYNN GRIGSBY   18:57.90  2162 THE FIX
3 Kristine Koch   East Aurora, NY22:55.26 203473  1985 TEAM CMI/S
DNF James Cooper   Groveland, CADNF 218140  2289 MOREWOOD/6
DNF AliciaRose Pastore   Durango CoDNF 219217  2062 DURANGO CY

Report missing or incorrect license numbers

Volkswagen
ShimanoBonk BreakerSierra NevadaSpyCUOREUSACDFOSMO
UCI USA Cycling is the official governing body for all disciplines of competitive cycling in the United States. The 501c3, membership-based organization aims both to achieve sustained success in international cycling competition and to grow competitive cycling in America while delivering an exceptional customer experience.
View Children's Online Privacy Protection Policy
US Olympic Committee